TimeCST,TemperatureF,Dew PointF,Humidity,Sea Level PressureIn,VisibilityMPH,Wind Direction,Wind SpeedMPH,Gust SpeedMPH,PrecipitationIn,Events,Conditions,WindDirDegrees,DateUTC
12:29 AM,48.2,48.2,100,30.24,2.5,Calm,Calm,-,N/A,,Clear,0,2012-12-01 06:29:00
12:30 AM,50.0,48.2,94,30.24,2.0,Calm,Calm,-,N/A,,Clear,0,2012-12-01 06:30:00
12:32 AM,50.0,50.0,100,30.24,1.8,Calm,Calm,-,N/A,,Clear,0,2012-12-01 06:32:00
12:33 AM,50.0,50.0,100,30.24,2.0,Calm,Calm,-,N/A,,Clear,0,2012-12-01 06:33:00
12:36 AM,50.0,50.0,100,30.24,2.5,Calm,Calm,-,N/A,,Clear,0,2012-12-01 06:36:00
12:38 AM,48.2,48.2,100,30.24,3.0,Calm,Calm,-,N/A,,Clear,0,2012-12-01 06:38:00
12:55 AM,47.7,47.3,99,30.24,5.0,Calm,Calm,-,N/A,,Clear,0,2012-12-01 06:55:00
1:55 AM,47.5,47.1,99,30.24,9.0,Calm,Calm,-,N/A,,Scattered Clouds,0,2012-12-01 07:55:00
2:05 AM,48.2,48.2,100,30.24,2.5,Calm,Calm,-,N/A,,Mostly Cloudy,0,2012-12-01 08:05:00
2:06 AM,48.2,48.2,100,30.24,2.0,Calm,Calm,-,N/A,,Mostly Cloudy,0,2012-12-01 08:06:00
2:08 AM,48.2,48.2,100,30.24,1.8,Calm,Calm,-,N/A,,Mostly Cloudy,0,2012-12-01 08:08:00
2:12 AM,48.2,48.2,100,30.24,1.2,Calm,Calm,-,N/A,,Mostly Cloudy,0,2012-12-01 08:12:00
2:15 AM,48.2,48.2,100,30.24,1.5,Calm,Calm,-,N/A,,Overcast,0,2012-12-01 08:15:00
2:21 AM,48.2,48.2,100,30.25,2.0,Calm,Calm,-,N/A,,Overcast,0,2012-12-01 08:21:00
2:22 AM,48.2,48.2,100,30.25,2.5,Calm,Calm,-,N/A,,Overcast,0,2012-12-01 08:22:00
2:23 AM,48.2,48.2,100,30.25,3.0,Calm,Calm,-,N/A,,Overcast,0,2012-12-01 08:23:00
2:55 AM,48.0,47.7,99,30.25,10.0,Calm,Calm,-,N/A,,Mostly Cloudy,0,2012-12-01 08:55:00
3:01 AM,48.2,48.2,100,30.25,2.5,ENE,4.6,-,N/A,,Scattered Clouds,60,2012-12-01 09:01:00
3:02 AM,48.2,48.2,100,30.25,2.0,ENE,4.6,-,N/A,,Scattered Clouds,60,2012-12-01 09:02:00
3:03 AM,48.2,48.2,100,30.25,1.5,ENE,4.6,-,N/A,,Scattered Clouds,60,2012-12-01 09:03:00
3:04 AM,48.2,48.2,100,30.25,1.2,ENE,3.5,-,N/A,,Scattered Clouds,60,2012-12-01 09:04:00
3:11 AM,48.2,48.2,100,30.25,1.5,ENE,3.5,-,N/A,,Partly Cloudy,70,2012-12-01 09:11:00
3:13 AM,48.2,48.2,100,30.25,2.0,Calm,Calm,-,N/A,,Partly Cloudy,0,2012-12-01 09:13:00
3:15 AM,48.2,46.4,93,30.25,2.5,Calm,Calm,-,N/A,,Clear,0,2012-12-01 09:15:00
3:20 AM,48.2,48.2,100,30.25,3.0,Calm,Calm,-,N/A,,Clear,0,2012-12-01 09:20:00
3:55 AM,46.4,46.2,99,30.23,2.5,East,3.5,-,N/A,,Clear,80,2012-12-01 09:55:00
3:58 AM,46.4,46.4,100,30.23,3.0,ENE,3.5,-,N/A,,Clear,70,2012-12-01 09:58:00
4:55 AM,46.6,46.2,99,30.25,9.0,Calm,Calm,-,N/A,,Scattered Clouds,0,2012-12-01 10:55:00
5:55 AM,45.3,44.6,97,30.27,10.0,NW,3.5,-,N/A,,Clear,310,2012-12-01 11:55:00
6:26 AM,44.6,42.8,93,30.28,2.5,North,3.5,-,N/A,,Clear,350,2012-12-01 12:26:00
6:31 AM,44.6,44.6,100,30.28,2.0,NNW,3.5,-,N/A,,Clear,340,2012-12-01 12:31:00
6:32 AM,44.6,44.6,100,30.28,1.8,NNW,3.5,-,N/A,,Clear,340,2012-12-01 12:32:00
6:35 AM,44.6,44.6,100,30.28,1.2,North,3.5,-,N/A,,Clear,350,2012-12-01 12:35:00
6:37 AM,44.6,44.6,100,30.28,1.5,Calm,Calm,-,N/A,,Clear,0,2012-12-01 12:37:00
6:42 AM,44.6,44.6,100,30.28,2.0,Calm,Calm,-,N/A,,Clear,0,2012-12-01 12:42:00
6:43 AM,44.6,44.6,100,30.28,2.5,Calm,Calm,-,N/A,,Clear,0,2012-12-01 12:43:00
6:44 AM,44.6,44.6,100,30.28,3.0,Calm,Calm,-,N/A,,Clear,0,2012-12-01 12:44:00
6:55 AM,44.4,44.1,99,30.29,7.0,Calm,Calm,-,N/A,,Clear,0,2012-12-01 12:55:00
7:55 AM,51.1,50.7,99,30.30,10.0,Calm,Calm,-,N/A,,Clear,0,2012-12-01 13:55:00
8:55 AM,61.3,54.9,79,30.31,10.0,Calm,Calm,-,N/A,,Clear,0,2012-12-01 14:55:00
9:55 AM,69.8,54.7,59,30.31,10.0,ESE,8.1,-,N/A,,Partly Cloudy,120,2012-12-01 15:55:00
10:55 AM,72.1,54.5,54,30.30,10.0,ESE,6.9,-,N/A,,Partly Cloudy,120,2012-12-01 16:55:00
11:55 AM,74.3,54.1,49,30.27,10.0,South,6.9,-,N/A,,Partly Cloudy,180,2012-12-01 17:55:00
12:55 PM,72.5,52.3,49,30.25,10.0,SE,6.9,-,N/A,,Scattered Clouds,130,2012-12-01 18:55:00
1:55 PM,73.6,51.3,45,30.24,10.0,SW,8.1,-,N/A,,Partly Cloudy,230,2012-12-01 19:55:00
2:55 PM,74.3,50.4,43,30.23,10.0,SSW,8.1,-,N/A,,Scattered Clouds,200,2012-12-01 20:55:00
3:55 PM,72.3,54.7,54,30.24,10.0,South,9.2,-,N/A,,Partly Cloudy,180,2012-12-01 21:55:00
4:55 PM,66.0,53.8,65,30.25,10.0,South,3.5,-,N/A,,Clear,180,2012-12-01 22:55:00
5:55 PM,58.1,52.7,82,30.26,10.0,Calm,Calm,-,N/A,,Clear,0,2012-12-01 23:55:00
6:55 PM,54.0,51.4,91,30.27,10.0,Calm,Calm,-,N/A,,Clear,0,2012-12-02 00:55:00
7:55 PM,52.0,50.5,95,30.27,10.0,Calm,Calm,-,N/A,,Clear,0,2012-12-02 01:55:00
8:55 PM,51.1,49.8,95,30.27,10.0,Calm,Calm,-,N/A,,Clear,0,2012-12-02 02:55:00
9:55 PM,49.5,48.4,96,30.27,10.0,Calm,Calm,-,N/A,,Clear,0,2012-12-02 03:55:00
10:55 PM,47.3,46.2,96,30.27,10.0,Calm,Calm,-,N/A,,Clear,0,2012-12-02 04:55:00
11:55 PM,46.2,44.6,94,30.27,10.0,North,3.5,-,N/A,,Clear,350,2012-12-02 05:55:00